STARLINK-32740 (62754 NORAD) Tracking and Keplerian Element Data

This shows tracking and keplerian element data for the satellite.

Feedback or suggestion? Click here.




ElementValue
Catalog62754
NameSTARLINK-32740
Epoch Orbit221
Epoch Day35.25001157
Epoch Year2025
RAAN253.8031
Inclination42.9995
Eccentricity0.0001507
Argument of Perigee278.9359
Mean Anonmoly115.1859
Mean Motion15.64338492
Decay Rate-0.01477511
L11 62754U 25014V 25035.25001157 -.01477511 00000+0 -16774-1 0 9995
L22 62754 42.9995 253.8031 0001507 278.9359 115.1859 15.64338492 2212



Live tracking and technical data element details for STARLINK-32740 (NORAD 62754). STARLINK-32740 can be tracked NOW for your location showing map with azimuth and elevation plus other details from your city location.







IsCatalogInMostPopularTable: catalog: 62754, numindb: 200
Update: records affected: 1



GetName: 62754 STARLINK-32740

Hit Count: updated at: Mon, 17 Nov 2025 18:11:16 GMT